Temp
20 21 21 21 21 22 22 22 22 22 22 22 22 23 23 23 23 23 23 23 23 23 23 24 24 24 24 24 24 24 24 24 23 23 23 23 23 23 23 23 23 23 22 22 22 22 22 22 22 22 22 22 22 22 22 22 22 22 22 22 22 22 22 22 22 22 22 22 22 22 21 21 21 21 20 20 21 21 21 21 21 21 21 21 21
20 21 21 21 22 22 22 22 22 22 23 23 22 23 23 23 23 23 23 23 23 23 23 23 24 24 24 24 24 24 23 23 23 23 23 23 23 23 23 23 23 23 22 22 22 22 22 22 22 22 22 22 22 22 22 22 22 22 22 22 22 21 21 21 21 22 22 22 22 22 21 21 21 21 20 20 21 21 21 21 21 21 21 21 21
20 20 21 21 22 22 22 22 22 22 22 22 22 22 23 23 23 23 23 23 23 23 23 23 23 23 23 24 24 23 23 23 23 23 23 23 23 23 23 23 23 23 22 22 22 22 22 22 22 22 22 22 22 22 22 22 22 22 22 22 22 21 21 21 21 21 21 21 22 22 21 21 21 21 21 21 21 21 21 21 21 21 21 21 21
20 20 21 21 21 22 22 22 22 22 22 22 22 23 23 23 23 23 23 23 23 23 23 23 23 23 23 24 23 23 23 23 23 23 23 23 23 23 23 23 22 22 22 22 22 22 22 22 22 22 22 22 22 22 22 22 22 22 22 22 22 22 21 21 21 21 21 21 21 21 21 21 21 21 21 21 21 21 21 21 21 21 21 21 21
21 20 20 21 21 21 22 22 22 22 22 22 22 23 23 23 23 23 23 23 23 23 23 23 23 23 23 23 23 23 23 23 23 23 23 23 23 23 23 23 22 22 22 22 22 22 22 22 22 22 22 22 22 22 22 22 22 22 22 22 21 22 21 21 21 21 21 21 21 21 21 21 21 21 21 21 21 21 21 21 21 21 21 21 21
21 21 21 21 21 21 21 21 22 22 22 22 22 23 23 23 23 23 23 23 23 23 23 23 23 23 23 23 23 23 23 23 23 23 23 23 23 23 23 23 23 22 22 22 22 22 22 22 22 22 22 22 22 22 22 22 22 21 21 22 22 21 21 21 21 21 21 21 21 21 21 21 20 20 21 21 21 21 21 21 21 21 21 21 21
22 22 21 21 21 22 22 22 22 22 22 22 23 23 23 23 23 23 23 23 23 23 23 23 23 23 23 23 24 23 23 23 23 23 23 23 23 23 23 23 23 23 23 22 22 22 22 22 22 22 22 22 22 22 22 22 22 21 21 21 22 21 21 21 21 21 21 21 21 21 21 21 21 20 21 21 21 21 21 21 21 21 21 21 21
22 22 22 22 22 22 22 22 22 22 23 23 22 22 23 23 23 23 23 23 23 23 23 23 23 24 23 23 24 23 23 23 23 23 23 23 23 23 23 23 23 23 23 23 23 22 22 23 23 23 23 23 22 22 22 22 22 21 21 21 21 21 21 21 21 21 21 21 21 21 21 21 21 21 20 21 21 21 21 21 21 21 21 21 21
22 22 21 22 22 22 22 22 23 23 23 22 22 23 23 23 23 23 23 23 23 23 23 23 23 24 23 23 24 24 23 23 23 23 23 23 23 23 23 23 23 23 23 23 23 22 22 22 23 23 23 23 23 22 22 22 22 22 21 21 21 21 21 21 21 21 22 21 21 21 21 21 21 21 21 21 21 21 21 21 21 21 21 21 21
22 22 21 21 22 22 22 22 23 22 22 22 22 23 23 23 23 23 23 23 23 23 23 23 24 24 23 23 24 24 23 23 23 23 23 23 23 23 23 23 23 23 23 22 22 22 22 22 22 22 23 23 23 22 22 22 22 22 22 21 21 21 21 21 22 22 22 22 21 21 21 21 21 21 21 21 21 21 21 21 21 21 21 21 21
22 22 21 21 22 22 22 22 22 22 22 22 22 23 23 23 23 23 23 23 23 23 23 23 23 24 23 23 24 24 23 23 23 23 23 23 23 23 23 23 23 23 22 22 22 22 22 22 22 22 22 22 22 22 22 22 22 22 22 22 21 21 21 22 22 22 22 22 21 21 21 21 21 21 21 21 21 21 21 21 21 21 21 21 21
22 22 22 21 22 22 22 22 22 22 23 22 23 22 22 22 23 23 23 23 23 23 23 23 23 23 23 23 24 24 24 23 23 23 23 23 23 23 23 23 23 22 22 22 21 22 22 22 22 22 22 22 22 22 22 23 22 22 22 22 22 21 21 22 22 22 22 22 22 21 21 21 22 21 21 21 21 21 21 20 21 21 21 21 21
22 22 22 22 22 22 22 22 22 23 23 23 23 23 23 23 23 23 23 23 23 23 23 23 23 23 23 23 23 24 24 23 23 23 23 23 23 23 23 23 23 22 22 21 21 22 23 22 21 21 22 22 22 23 23 23 23 23 22 22 22 22 22 22 22 22 22 22 22 21 21 22 22 21 21 21 21 21 21 21 21 21 21 21 21
22 22 22 22 22 22 22 22 22 22 22 22 23 23 23 23 23 23 23 23 23 23 23 23 23 23 23 23 23 23 23 23 23 23 23 23 23 23 23 23 23 23 22 22 21 22 22 22 21 21 22 23 23 23 23 23 23 23 22 22 22 22 22 22 22 22 22 22 21 21 21 22 22 21 21 21 21 21 21 21 21 21 21 21 21
22 22 22 22 22 22 22 22 22 22 22 22 23 23 23 23 23 23 23 23 23 23 23 23 23 23 23 23 23 23 23 23 23 23 23 23 23 23 23 23 23 23 23 22 22 22 22 22 21 21 22 23 23 23 23 23 23 23 23 22 22 22 22 22 22 22 22 22 21 21 21 22 22 21 21 21 21 21 21 21 21 21 21 21 21
22 22 22 22 22 22 22 22 22 22 23 23 23 23 23 23 23 23 23 23 23 23 23 23 23 23 23 23 23 23 23 23 23 23 23 23 23 24 24 24 23 23 23 22 23 23 22 22 22 21 22 23 23 23 23 23 23 23 23 22 22 22 22 22 22 22 22 22 22 21 22 21 22 21 21 21 21 21 21 21 21 21 21 21 20
22 22 22 22 22 22 22 22 23 22 23 23 23 23 23 23 23 23 23 23 23 23 23 23 23 23 23 23 23 23 23 23 23 23 23 23 24 24 24 23 23 23 23 23 23 23 23 23 23 22 22 23 24 24 24 24 24 23 23 22 22 22 22 22 22 22 22 22 22 22 22 22 22 22 21 21 21 21 21 21 21 21 21 21 20
22 22 22 22 22 22 22 22 23 23 22 23 23 23 23 23 23 23 23 23 23 23 23 23 23 23 23 23 23 23 23 23 23 23 23 23 24 24 24 23 23 23 23 23 23 23 23 23 23 23 23 24 24 24 24 24 23 23 23 23 22 22 22 22 22 22 22 21 22 22 22 22 22 22 21 21 21 21 21 21 21 21 21 21 20
23 22 22 22 22 22 22 23 23 23 23 23 23 23 23 23 23 23 23 23 23 23 23 23 23 23 23 23 23 23 23 23 23 23 23 23 24 24 23 23 23 23 23 23 23 23 23 23 23 24 24 24 24 24 24 23 23 23 23 23 23 23 22 22 22 22 22 21 21 22 22 22 22 22 22 21 21 21 21 21 21 21 21 21 20
23 22 22 22 22 22 23 23 23 23 23 23 23 23 23 23 23 23 23 23 23 23 23 23 23 23 23 23 23 23 23 23 23 23 23 23 24 23 23 23 23 23 23 23 23 23 23 23 23 24 24 24 23 23 23 23 23 23 23 23 22 23 22 22 22 22 22 22 22 22 22 22 22 22 22 22 21 21 21 21 21 21 21 21 21
23 23 23 22 22 23 23 23 23 23 23 23 23 23 23 23 23 23 23 23 23 23 23 23 23 23 23 23 23 23 23 23 23 23 23 23 23 23 23 23 23 23 23 23 24 24 24 24 24 24 24 24 23 23 22 23 23 23 23 23 23 23 23 23 22 22 22 22 22 22 22 22 22 22 22 22 22 21 21 21 21 21 21 21 21
24 23 23 23 23 23 23 23 23 23 23 23 23 23 23 23 23 23 23 23 23 23 23 23 23 23 23 23 23 23 23 23 23 22 22 23 23 23 23 23 23 23 23 24 24 24 24 24 24 24 24 23 23 23 22 22 23 23 23 24 24 24 23 23 23 23 23 22 22 22 22 22 22 22 22 22 22 22 21 21 21 21 21 20 21
24 24 24 24 23 23 23 23 23 23 23 23 23 23 23 23 23 23 23 23 23 23 23 23 23 23 23 24 23 23 23 23 23 23 22 23 23 23 23 23 23 23 23 23 23 24 24 24 24 24 24 23 23 23 23 23 23 23 24 24 24 24 24 24 24 24 23 23 22 22 22 22 22 22 22 22 22 22 21 21 21 21 21 20 20
25 25 24 24 23 23 23 24 23 23 23 23 23 23 23 23 23 23 23 23 23 23 24 23 23 23 24 24 23 23 23 23 23 23 23 23 23 23 23 23 23 23 23 23 23 23 23 23 23 23 23 23 23 23 23 23 23 23 24 24 24 24 24 24 24 24 24 23 23 22 22 23 22 22 22 22 22 22 22 21 21 21 21 21 20
26 25 25 24 24 23 23 23 23 23 23 23 23 23 23 23 23 23 23 23 23 23 23 23 24 23 23 23 23 23 23 23 23 23 23 23 23 23 23 23 23 23 23 23 23 23 23 23 23 23 23 23 23 23 23 24 24 24 24 24 24 24 24 24 24 24 24 23 23 23 23 23 22 22 22 22 21 21 21 21 21 21 21 21 21
26 25 25 24 24 24 23 23 23 23 23 23 24 24 24 24 23 23 23 23 23 23 23 23 23 23 23 23 22 23 23 23 23 24 24 23 23 23 23 23 23 23 23 23 23 23 23 23 23 23 23 23 23 23 23 24 24 24 24 24 24 24 24 24 24 24 24 23 23 23 23 22 22 22 22 22 21 21 21 21 21 21 21 21 21
26 26 25 25 24 24 24 24 23 23 23 23 24 24 24 24 23 23 23 23 23 23 23 23 23 23 23 23 23 23 24 24 24 24 24 23 23 23 23 23 24 23 24 24 24 24 23 23 23 23 24 24 23 23 23 24 24 25 25 25 25 25 24 24 24 24 24 24 23 23 23 22 22 22 22 22 21 21 21 21 21 21 21 21 21
26 26 25 25 25 24 24 24 24 24 23 23 23 24 24 23 23 23 23 23 23 23 23 23 23 23 24 24 24 24 24 24 24 24 23 24 24 24 24 24 24 24 24 24 24 24 24 24 23 23 23 23 23 23 23 24 24 25 25 25 25 25 25 25 24 24 24 24 23 23 23 23 22 22 22 22 21 21 21 21 21 21 21 21 21
26 26 25 25 25 25 24 24 24 24 24 24 24 24 24 23 23 23 23 23 23 24 23 23 24 24 24 24 24 24 24 24 24 24 23 24 24 24 24 24 24 24 24 24 24 24 24 24 23 23 23 23 23 23 24 24 24 24 25 25 25 25 25 25 25 25 24 24 24 24 23 23 23 22 22 22 21 21 21 21 21 21 21 21 21
26 26 26 25 25 25 24 24 24 24 24 24 24 24 24 24 24 24 24 24 24 24 24 24 24 24 24 24 24 24 24 24 24 24 24 24 24 24 24 24 24 24 24 24 24 24 23 23 23 23 23 23 23 24 24 24 24 25 25 25 25 25 25 25 25 25 24 24 24 24 24 23 23 23 23 22 22 21 21 21 21 21 21 21 21
26 26 26 26 25 25 25 24 24 24 24 24 24 24 24 24 24 25 24 24 24 24 24 24 24 24 24 24 24 24 24 24 24 24 24 24 24 24 24 24 24 24 24 24 24 23 23 23 23 23 23 23 23 24 24 24 24 25 25 25 25 25 26 26 25 25 25 24 24 24 24 24 24 23 23 23 22 22 21 21 21 21 21 21 21
27 26 26 26 26 25 25 25 25 24 24 25 25 24 25 25 25 25 25 25 25 25 25 25 25 25 25 24 24 24 24 24 24 24 24 24 24 24 24 24 24 24 24 24 24 23 23 23 23 23 23 24 24 24 24 24 24 25 25 25 25 25 26 25 25 25 25 24 24 24 24 24 23 23 23 23 23 22 22 22 21 21 21 21 21
27 27 26 26 26 26 25 25 25 24 25 25 25 25 25 25 25 25 25 25 25 25 25 25 25 25 25 25 24 25 25 24 24 24 24 24 24 24 24 24 24 24 24 24 23 24 24 23 23 23 23 24 24 24 24 24 24 25 25 25 25 25 26 25 25 25 24 24 24 24 24 23 23 23 23 23 23 23 22 22 22 21 21 21 21
28 27 27 27 26 26 25 25 25 25 25 25 25 25 25 25 26 25 25 25 25 25 26 26 26 25 25 25 25 25 25 24 24 24 24 24 24 24 24 24 24 24 24 24 23 24 24 23 23 23 23 23 24 24 24 24 24 25 25 25 25 25 25 25 25 25 25 24 24 24 23 23 23 23 23 23 22 22 22 22 22 21 22 21 21
28 28 27 27 27 26 26 26 25 25 25 25 26 26 26 26 26 26 25 26 26 26 26 26 26 26 25 25 25 25 25 24 24 24 24 24 24 24 24 24 24 24 24 24 24 24 24 23 23 23 23 23 23 24 24 24 24 24 25 25 25 25 25 25 25 25 25 25 24 24 24 23 23 23 23 23 23 22 22 22 21 21 21 21 21
29 28 28 28 27 27 26 26 26 26 25 26 26 26 26 26 26 26 26 26 26 26 26 26 26 26 25 25 25 25 25 25 24 24 24 24 24 24 24 24 24 24 24 23 23 23 23 23 23 23 23 23 23 24 24 24 24 24 25 25 25 25 25 25 25 25 25 25 24 24 24 23 23 23 23 23 23 22 22 22 21 21 21 21 21
29 29 28 28 28 28 27 27 26 26 26 26 26 26 26 26 26 26 26 26 26 26 26 26 26 26 25 25 25 25 25 25 24 24 24 24 24 24 24 24 24 24 23 23 23 23 23 23 23 23 23 23 23 23 24 24 24 24 25 25 25 25 25 25 25 25 25 25 24 24 24 23 23 23 23 22 22 22 22 22 21 21 21 21 21
29 29 29 28 28 28 27 27 26 26 26 26 26 26 26 26 26 26 26 26 26 26 26 26 26 26 26 25 25 25 25 25 24 24 24 24 24 23 24 23 23 23 23 23 23 23 23 23 23 23 23 23 23 23 23 24 24 24 25 25 25 25 25 25 25 25 25 25 25 24 24 24 23 23 23 23 22 22 22 22 21 21 21 21 21
29 29 29 29 28 28 28 27 27 26 26 26 26 26 26 26 26 26 26 26 26 26 26 26 26 26 26 25 25 25 25 25 24 24 24 24 23 23 23 23 23 23 23 23 23 23 23 23 23 23 23 23 23 23 23 23 24 24 24 24 24 25 25 25 25 25 25 25 25 24 24 24 23 23 23 23 22 22 22 22 21 21 21 21 21
29 29 29 29 29 28 28 27 27 26 26 26 26 26 26 26 26 26 26 26 26 26 26 26 26 26 26 26 25 25 25 25 25 24 24 24 23 23 23 23 23 23 23 23 23 23 23 23 23 23 23 23 23 23 23 23 24 24 24 24 24 25 25 25 25 25 25 25 25 24 24 23 23 23 23 23 22 22 22 21 21 21 21 21 21
29 29 28 28 28 28 28 28 27 27 26 26 26 26 26 26 26 26 26 26 26 26 26 26 26 26 26 26 25 25 25 25 25 24 24 24 23 23 23 23 23 23 23 23 23 23 23 23 23 23 23 23 23 23 23 23 24 24 24 24 24 25 25 25 25 25 25 25 25 25 24 24 23 22 22 22 22 22 22 21 21 21 21 21 21
29 29 28 28 28 28 28 28 27 27 26 26 26 26 26 26 25 26 25 25 26 25 25 25 26 26 26 26 25 25 25 25 25 24 24 24 23 23 23 23 23 23 23 23 23 23 23 23 23 23 23 23 23 23 23 24 23 23 23 24 24 24 24 24 25 25 25 25 25 25 25 25 24 23 22 22 22 22 22 21 21 21 21 21 21
29 29 28 28 28 28 28 28 27 27 26 26 26 26 25 25 25 25 25 25 25 25 25 25 25 26 26 26 26 25 25 25 24 24 24 24 24 23 23 23 23 22 22 23 23 23 23 23 23 23 23 23 23 23 23 24 24 23 23 23 23 23 24 24 24 25 25 25 25 25 25 25 24 23 22 22 22 22 22 22 21 21 21 21 21
29 28 28 28 28 28 28 28 27 27 26 26 26 26 25 25 25 25 25 25 26 25 25 25 25 25 25 25 25 25 25 25 24 24 24 24 24 23 23 23 23 22 23 23 23 23 23 23 23 23 23 23 23 23 23 23 24 23 23 23 22 23 23 23 24 24 25 25 25 25 25 25 24 24 23 22 22 22 22 22 22 21 21 21 21
29 28 28 28 27 27 27 27 27 27 26 26 26 26 25 25 25 25 25 25 26 25 25 25 25 25 25 25 25 25 25 25 24 24 24 24 24 23 23 23 23 22 23 23 23 23 23 23 23 23 23 23 23 23 23 23 24 24 23 23 23 22 22 23 23 24 25 25 25 25 25 25 24 24 23 23 22 23 22 22 22 22 22 21 21
29 29 28 28 27 27 27 27 27 27 26 26 26 26 25 25 25 25 25 25 25 25 25 25 25 25 25 25 25 24 25 24 24 24 24 24 24 23 23 23 23 23 23 23 23 23 23 23 23 23 23 23 23 23 23 23 23 23 23 23 23 23 23 23 23 23 24 25 24 24 24 25 24 24 24 23 23 23 22 22 22 22 22 22 21
30 29 29 28 27 27 27 27 27 27 26 26 26 26 25 25 25 25 25 25 25 25 25 25 25 25 25 25 25 24 24 24 24 24 24 23 23 23 23 23 23 23 23 23 23 23 23 23 23 23 23 23 22 22 23 23 23 23 23 23 23 23 23 23 23 23 23 24 25 24 24 24 24 24 23 23 23 23 23 22 22 22 22 22 21
30 30 29 28 28 27 27 27 27 26 26 26 26 26 25 25 25 25 25 25 25 25 25 26 25 25 25 25 25 24 24 24 24 24 23 23 23 23 23 23 23 23 23 23 23 23 23 23 23 23 23 23 22 22 23 23 23 23 23 23 23 23 23 23 23 23 23 23 24 24 24 24 24 24 23 23 23 23 23 23 22 22 22 22 22
30 29 29 29 28 27 27 27 26 26 26 26 26 26 26 25 25 25 25 25 26 26 25 25 25 25 25 25 24 24 24 24 24 24 24 23 23 23 23 23 23 23 24 24 23 23 23 23 23 23 23 23 22 22 23 23 23 23 23 23 23 23 23 23 23 24 23 23 23 23 24 24 24 24 23 23 23 23 23 23 23 22 22 22 22
30 30 29 29 28 27 27 27 26 26 26 26 26 26 26 25 25 25 25 25 25 25 25 25 25 25 25 25 25 25 24 24 24 24 24 23 23 23 23 23 23 23 24 24 23 23 23 23 23 23 23 23 22 22 23 23 22 23 23 23 23 23 23 23 23 23 23 23 23 23 23 23 23 24 24 23 23 23 23 23 23 22 22 22 22
30 30 29 29 28 27 27 27 26 26 26 26 26 26 26 25 25 25 25 25 25 25 25 25 25 25 25 25 25 25 24 24 24 24 23 23 23 23 23 23 23 23 24 24 23 23 23 23 23 23 22 22 22 22 22 22 22 23 23 23 23 23 23 23 23 23 23 22 22 22 22 23 23 23 24 23 23 23 23 23 23 22 22 22 22
Height
813 812 812 813 815 815 816 816 818 819 820 821 822 824 825 826 827 828 829 830 832 833 834 835 837 838 838 839 840 841 842 843 844 846 847 847 846 846 846 846 847 848 849 849 849 848 848 848 849 849 849 849 848 848 848 848 848 848 848 848 848 849 849 849 849 849 849 850 850 850 850 850 851 851 851 851 851 851 851 852 852 853 853 853 854
812 812 812 814 815 815 817 817 819 819 820 822 823 825 826 827 828 829 830 831 833 834 835 837 838 839 840 840 841 843 844 844 846 847 848 848 847 847 847 848 849 849 849 850 850 849 849 849 850 850 850 850 849 849 849 849 849 849 849 849 849 849 850 850 850 850 850 850 850 850 850 851 851 851 852 852 852 851 852 852 853 854 854 854 855
812 813 813 814 815 816 817 818 819 820 822 823 825 826 827 828 828 830 830 832 834 835 837 838 840 841 841 841 843 844 845 845 847 848 848 848 848 848 848 849 850 850 850 850 850 851 850 851 851 851 851 850 850 850 850 850 850 850 849 850 850 850 850 850 850 850 851 851 851 851 851 851 851 852 852 852 852 852 852 853 854 854 855 855 855
813 814 814 815 816 817 818 819 820 821 823 824 826 826 828 829 829 830 831 834 835 836 838 840 841 841 842 842 844 845 845 847 848 849 849 849 849 849 850 851 851 851 851 851 851 851 852 852 852 851 851 851 850 850 850 850 850 850 850 850 850 851 851 851 851 851 851 851 852 852 852 852 852 852 852 853 853 853 853 853 854 855 855 856 856
813 814 814 815 817 818 819 820 821 822 824 825 826 827 829 829 829 831 832 834 836 837 839 841 842 842 843 844 845 846 847 848 849 849 849 850 850 850 851 852 852 852 852 852 852 852 852 852 852 852 851 851 851 851 851 851 851 851 851 851 851 851 851 851 851 851 851 852 852 852 853 853 853 853 853 853 854 854 854 854 855 856 856 857 857
812 813 815 815 817 819 820 821 822 823 824 826 827 828 829 830 831 832 833 835 837 839 840 842 843 843 844 845 846 847 848 849 850 850 850 850 851 851 852 853 853 852 852 852 852 853 853 853 853 852 852 851 851 851 851 851 851 851 851 851 851 851 851 852 852 852 852 852 853 853 853 854 854 854 854 854 855 855 855 855 856 857 857 858 858
812 813 815 815 817 819 821 822 823 825 825 826 827 829 830 831 832 833 834 836 838 840 841 842 843 844 845 846 847 848 849 850 850 851 851 851 852 852 853 853 853 853 853 853 853 853 853 853 853 852 852 852 852 852 852 852 852 852 852 852 852 852 853 853 853 853 853 852 853 854 854 854 855 855 855 855 855 856 856 856 857 857 858 859 859
812 814 815 816 817 819 821 823 824 825 826 827 828 829 831 832 833 834 835 837 839 840 842 843 844 845 846 847 848 849 850 850 851 851 852 852 852 853 853 853 853 853 853 853 853 853 853 853 853 853 852 852 852 852 852 852 853 853 852 853 853 854 854 854 854 854 854 853 853 854 855 855 855 856 856 856 856 857 857 858 858 858 859 860 860
814 814 815 817 818 820 822 823 824 825 826 828 829 830 831 832 833 834 836 838 840 841 842 843 844 846 846 847 848 849 850 851 851 851 852 852 853 853 854 854 854 854 853 854 854 854 854 854 853 853 853 852 852 852 852 852 853 853 853 853 854 854 854 854 855 855 854 854 854 855 855 856 856 857 857 857 857 857 858 859 859 859 860 860 861
814 815 817 818 819 821 822 824 825 826 828 828 830 831 832 833 834 836 838 839 841 842 843 844 845 846 847 848 849 850 850 851 852 852 853 853 854 854 854 854 854 854 854 854 854 854 854 854 854 853 853 853 853 852 852 852 853 853 853 854 854 854 854 854 855 855 855 854 855 855 856 857 857 858 858 858 858 858 859 859 860 860 861 861 862
815 817 818 819 821 822 823 825 826 827 828 829 830 831 833 834 835 837 839 840 841 842 843 844 846 847 847 848 849 850 851 851 852 852 853 854 854 854 854 854 855 855 854 855 854 855 855 854 854 854 854 853 853 853 853 853 853 853 854 854 854 854 854 855 855 855 855 855 855 855 856 857 857 858 859 859 859 859 860 860 861 861 862 862 863
815 817 818 820 821 822 824 825 826 828 828 830 831 832 833 835 836 838 839 841 841 842 843 845 846 847 847 848 849 850 851 852 853 853 854 854 854 855 855 855 855 855 855 855 855 855 855 855 855 854 854 854 853 853 853 853 853 854 854 854 855 855 854 855 855 854 855 855 855 855 856 857 858 859 859 860 860 860 861 861 862 862 863 863 864
815 817 818 820 821 823 824 826 827 828 829 830 831 833 834 835 837 838 839 841 841 842 843 845 846 847 848 848 850 850 852 852 853 854 854 854 855 855 855 855 855 855 855 855 855 855 855 855 855 855 855 854 854 854 854 854 854 854 854 855 855 855 855 855 855 855 855 855 855 856 856 857 857 858 859 860 860 861 861 862 863 864 864 864 865
814 816 818 820 822 824 824 826 827 828 830 831 832 833 835 836 837 838 839 840 841 843 844 845 846 847 848 849 850 851 852 853 854 854 855 855 855 856 855 855 855 855 855 855 855 855 855 855 856 856 855 855 855 855 855 855 855 855 855 856 856 856 856 856 856 855 855 856 856 857 857 857 857 858 859 860 861 862 862 863 864 865 865 866 866
814 816 818 821 822 824 825 827 827 829 830 831 833 833 835 836 837 838 840 841 842 843 844 845 846 847 848 849 850 851 853 853 854 854 855 855 855 855 855 855 855 855 855 855 856 856 856 855 856 856 856 856 855 856 856 856 856 856 856 856 857 857 857 856 856 856 856 856 857 857 858 858 857 858 859 860 861 862 863 863 864 865 866 867 867
814 816 819 821 823 824 826 827 828 830 830 831 832 833 835 836 837 839 840 841 842 843 844 846 847 848 849 850 851 852 853 853 854 855 855 855 855 855 855 855 855 855 855 855 856 855 856 855 856 856 856 856 856 856 856 857 856 856 856 857 858 858 857 856 856 856 856 856 857 858 858 858 858 858 860 860 861 862 863 864 864 865 866 868 868
815 817 819 821 823 824 826 827 828 830 830 832 832 833 835 836 838 839 840 841 842 844 844 846 847 848 849 850 851 852 853 853 854 854 855 855 855 855 855 855 855 855 855 855 856 855 856 856 856 857 857 857 857 857 857 857 857 856 856 856 857 857 856 856 856 856 856 856 856 857 857 857 858 859 860 861 862 863 863 864 865 865 866 868 869
816 818 819 821 823 824 826 827 828 829 830 831 833 834 835 836 838 839 840 841 842 844 845 846 847 848 849 850 851 852 853 853 854 854 854 855 854 854 854 854 854 855 855 855 856 856 856 856 856 857 857 858 858 858 858 858 857 855 854 854 853 854 856 857 857 856 856 856 856 856 856 857 857 858 860 861 862 863 864 864 865 866 867 868 869
817 818 819 821 822 824 825 827 828 828 830 831 833 834 835 836 838 839 840 842 843 844 845 846 847 848 849 850 851 851 853 853 854 854 854 855 854 854 854 854 855 855 855 855 856 856 856 856 857 857 858 858 859 859 859 858 856 854 854 855 853 853 856 857 857 857 856 856 856 856 856 856 857 858 859 860 861 862 863 865 866 866 867 868 869
817 818 819 821 822 824 824 826 827 828 830 831 832 833 835 837 838 839 840 842 843 844 845 846 847 848 849 849 850 851 852 853 854 854 854 855 854 855 855 855 855 855 855 855 856 856 856 857 857 858 858 859 859 860 861 858 855 854 855 856 856 855 856 857 857 856 856 856 857 857 857 857 857 858 858 859 860 862 863 864 866 867 868 868 869
817 818 819 821 822 823 824 826 827 828 830 830 832 833 835 837 838 839 840 842 842 844 844 846 847 847 849 849 850 851 852 853 853 854 854 854 854 855 855 855 855 855 856 856 856 856 857 857 857 858 858 859 860 860 861 859 855 855 855 855 856 856 856 856 856 856 856 856 857 857 857 858 858 858 858 859 860 861 862 864 865 867 868 869 869
815 817 819 820 821 822 823 825 826 828 829 830 832 833 835 836 837 839 840 842 842 844 844 845 846 847 848 849 850 850 851 852 852 853 854 854 854 855 855 855 856 856 856 856 856 856 857 857 857 858 858 859 860 860 861 859 856 856 855 855 856 856 856 856 856 856 856 856 857 857 858 858 858 859 859 860 860 861 862 863 865 866 867 869 870
813 816 818 819 820 822 823 824 825 827 828 829 831 832 834 835 837 838 839 841 842 843 844 844 845 846 847 848 849 850 851 852 852 853 854 854 855 855 855 855 856 856 856 856 856 857 857 857 857 858 858 859 859 859 860 859 857 856 856 855 855 855 855 855 856 856 856 857 857 858 858 859 859 859 860 860 861 861 862 863 864 865 866 868 869
812 814 816 818 819 821 822 823 824 826 827 829 830 832 833 835 836 837 839 840 841 842 843 844 844 845 846 847 848 849 851 851 852 853 854 854 855 855 855 855 856 855 856 856 856 857 857 857 858 858 859 859 859 859 859 859 858 857 856 855 855 855 855 855 855 856 856 857 857 858 858 859 859 860 860 860 861 862 862 863 863 864 865 866 868
810 813 815 816 818 820 821 822 824 825 826 828 829 831 832 834 835 836 838 839 840 841 842 843 844 845 846 847 848 849 850 851 852 852 853 854 854 855 855 855 855 855 856 856 856 856 857 857 858 858 858 859 860 860 860 859 858 857 857 856 855 854 855 855 855 855 856 856 857 857 858 858 859 859 860 860 861 862 863 863 863 864 864 865 866
809 811 813 815 817 819 820 821 823 824 825 826 828 830 831 832 834 835 837 838 840 841 842 843 843 844 845 846 847 848 850 850 851 852 853 853 854 855 855 855 855 855 855 855 856 856 856 857 857 858 858 859 859 860 859 859 858 857 857 857 856 855 855 855 855 856 856 856 857 857 858 858 858 859 859 860 861 862 863 863 863 863 863 864 864
808 810 812 814 816 817 819 820 822 823 825 826 827 829 830 831 833 834 836 837 839 840 841 842 843 844 844 846 846 847 848 849 850 851 852 852 853 854 854 854 854 854 854 855 855 855 856 856 856 857 858 858 859 859 859 858 858 857 857 857 856 856 855 855 855 856 856 856 857 857 857 857 857 858 859 860 861 861 862 862 863 863 863 863 863
806 809 811 813 815 816 818 819 820 822 824 825 826 828 829 831 832 834 835 836 838 839 841 841 842 843 844 845 845 846 847 848 849 850 851 851 852 852 853 853 853 853 853 853 854 854 855 855 856 856 857 858 858 858 858 858 858 857 857 856 856 856 856 855 855 855 855 856 856 857 857 857 857 857 858 859 860 861 861 861 861 862 862 863 864
805 807 810 811 813 815 816 818 819 821 823 824 826 827 829 830 831 833 834 836 837 838 839 840 841 842 843 844 845 846 847 848 849 849 850 850 851 851 851 852 852 852 852 852 853 853 854 854 855 856 856 857 857 858 858 858 857 857 857 856 856 856 856 855 855 855 855 855 855 856 856 856 856 857 858 859 859 860 860 859 859 860 862 863 864
803 805 808 810 812 813 815 817 818 820 822 824 825 826 828 829 830 832 833 835 836 837 838 839 840 841 842 843 844 846 847 847 848 848 849 849 850 850 850 851 851 851 851 852 852 853 853 854 854 855 855 856 857 857 857 857 857 857 857 856 856 855 855 855 855 855 855 855 855 855 856 856 856 856 857 858 858 859 859 858 859 860 862 863 863
801 804 806 808 810 812 814 816 817 819 821 822 824 825 827 828 829 831 832 833 834 836 837 838 839 840 841 843 844 845 846 846 847 847 848 849 849 850 850 850 850 850 851 851 852 852 853 854 853 853 854 854 855 856 856 856 856 856 856 856 855 855 855 855 855 854 853 854 855 855 856 856 856 856 856 857 857 857 858 858 859 861 862 862 863
799 801 804 806 808 810 812 814 816 818 819 821 823 824 826 827 829 830 831 832 833 834 836 837 838 839 840 842 843 844 845 846 846 846 847 848 848 848 849 849 849 849 850 850 851 851 852 853 853 853 853 854 854 854 855 855 855 855 855 855 855 855 855 854 854 853 852 854 855 856 855 856 856 856 856 856 856 856 857 858 860 861 861 862 863
796 799 801 804 806 808 811 813 814 817 818 820 822 823 825 826 828 829 830 831 832 833 834 836 837 838 839 841 843 844 844 845 845 845 846 847 847 847 847 848 849 849 849 850 850 851 851 852 852 853 853 854 853 853 854 855 855 854 854 854 854 854 854 854 854 853 853 854 855 855 855 856 857 857 857 856 856 856 856 858 859 860 860 861 862
794 796 799 801 804 806 809 811 813 815 817 819 821 822 824 825 827 828 829 830 831 832 833 835 836 837 838 839 841 842 843 844 844 845 845 845 846 846 846 847 848 848 849 850 850 850 850 851 852 852 853 853 853 852 853 854 854 854 853 853 853 854 854 853 853 853 853 853 854 854 855 856 856 856 857 856 857 856 857 857 858 859 859 860 861
791 794 796 799 802 804 807 809 811 813 815 817 819 821 823 824 826 827 828 829 830 831 833 834 835 835 837 838 840 840 842 842 843 843 843 844 845 845 846 846 847 847 848 849 849 849 849 850 851 852 852 852 852 852 852 853 853 853 853 853 853 853 853 853 853 853 854 853 853 853 854 854 855 855 856 856 856 856 857 857 858 858 859 860 861
789 792 794 797 800 802 804 807 809 811 813 816 817 819 821 823 825 826 827 828 829 830 832 833 834 835 836 837 838 839 840 841 841 842 842 842 843 844 845 845 846 846 847 847 847 848 849 850 850 851 851 851 852 851 851 851 851 852 852 852 853 853 853 853 853 853 853 853 854 853 853 854 854 854 855 855 856 856 857 857 857 858 859 860 860
787 790 793 795 797 800 802 804 807 809 812 814 816 818 820 821 823 825 826 827 828 829 831 832 833 834 835 836 837 838 839 839 839 840 840 841 841 842 843 844 845 845 846 846 846 847 848 849 849 849 850 850 851 850 850 850 850 850 851 851 852 852 852 853 853 853 853 853 853 854 854 854 854 854 854 854 855 856 856 856 857 858 858 859 860
785 788 791 793 795 798 800 802 804 807 810 812 814 816 818 820 822 824 825 826 827 828 829 831 832 832 833 834 835 836 837 838 838 838 839 840 841 842 842 843 844 844 845 846 846 846 847 847 848 848 849 849 850 849 849 849 849 849 850 851 851 852 852 852 852 853 853 853 853 854 854 854 854 854 854 854 855 856 856 856 857 857 858 858 859
783 786 789 791 794 796 797 799 801 804 807 810 813 815 816 819 821 822 824 825 826 827 828 830 831 831 832 833 834 834 836 836 837 838 838 839 840 841 842 842 843 843 844 845 845 845 846 846 847 847 848 848 849 849 848 848 848 849 850 850 851 851 851 851 852 852 852 853 853 854 854 855 855 855 855 855 855 856 856 856 856 857 857 858 859
781 784 787 790 792 794 795 797 799 801 804 808 810 813 815 817 819 820 822 823 824 826 827 828 829 830 830 831 832 833 834 834 835 837 838 838 839 841 841 841 842 842 843 843 844 844 844 845 846 847 847 848 848 848 848 848 848 848 849 850 850 850 851 851 851 852 852 853 853 854 854 855 856 856 856 856 856 856 856 857 856 856 857 857 858
779 781 784 787 789 791 793 795 797 799 801 804 807 809 811 814 816 818 820 821 823 824 826 827 828 829 829 829 830 831 832 833 834 835 837 837 838 839 840 840 840 840 842 842 843 843 844 845 845 846 847 847 848 847 848 848 847 848 848 849 849 849 850 850 851 851 853 853 853 853 854 854 855 855 856 856 856 856 857 857 857 857 857 857 858
776 779 781 784 787 789 791 793 795 796 798 801 804 807 809 811 813 815 818 819 821 822 824 825 827 827 827 828 829 830 830 831 833 834 835 836 837 837 838 839 839 840 841 842 842 843 843 844 845 846 847 847 847 847 847 847 847 848 848 848 849 849 849 849 850 851 852 853 852 852 853 854 854 854 855 856 856 856 856 857 857 857 857 858 858
773 776 779 781 784 787 789 791 792 794 796 798 801 804 806 809 811 813 816 818 819 821 823 824 825 826 826 827 827 828 829 830 832 833 834 835 835 836 837 838 839 840 841 842 842 842 843 844 845 846 846 847 847 847 847 847 847 848 848 850 850 850 850 849 849 850 851 851 851 852 853 853 854 854 854 854 855 855 856 856 857 857 858 858 858
771 774 776 778 780 783 785 788 790 792 794 796 798 801 805 807 810 812 815 817 818 820 822 823 824 824 825 825 825 826 828 829 830 831 832 833 834 835 836 837 839 840 841 841 841 842 843 844 845 846 846 847 847 847 847 847 847 848 849 851 850 851 854 851 849 850 850 850 850 851 852 852 853 854 854 854 855 855 855 856 856 856 857 858 858
767 769 771 774 776 779 782 785 788 790 792 794 797 800 803 806 809 812 814 815 817 818 819 821 821 822 823 823 824 825 826 828 829 830 830 831 833 834 836 837 838 839 839 839 840 841 842 843 844 845 846 846 846 847 847 847 847 847 848 849 851 854 854 850 849 850 850 850 850 850 851 851 852 853 853 853 854 855 855 855 855 856 856 857 858
762 764 767 770 773 777 780 783 785 788 790 792 795 798 800 803 806 808 810 812 813 815 816 817 819 820 820 821 823 824 825 826 827 828 829 830 832 833 835 836 837 837 837 838 839 840 841 842 843 844 844 845 845 846 846 846 847 847 847 847 849 851 850 849 850 851 849 849 850 850 850 850 851 852 852 853 853 854 854 854 854 855 855 855 856
757 761 764 767 770 774 777 780 782 785 788 790 793 795 798 800 803 804 806 808 810 811 813 815 816 818 819 820 821 823 824 824 825 826 828 829 831 832 833 835 835 835 836 836 837 839 840 841 842 842 843 844 845 845 845 845 846 846 847 847 847 848 848 848 849 851 851 850 849 849 850 850 850 851 852 852 853 853 853 853 853 854 854 854 855
755 758 760 763 766 769 772 776 779 782 785 788 790 792 795 797 800 802 804 805 807 809 811 813 815 817 818 819 820 821 822 823 824 825 826 828 829 831 832 833 834 834 834 835 837 838 839 840 841 841 842 843 843 844 844 844 845 845 846 847 847 847 847 848 848 849 851 852 850 849 849 850 850 850 851 852 853 853 853 853 853 853 854 854 854
752 755 757 759 761 764 768 772 776 779 782 785 788 790 792 795 797 800 801 803 805 807 810 812 814 815 816 817 818 819 820 821 822 823 825 826 828 829 830 831 832 833 834 835 836 837 838 839 840 840 841 842 843 843 844 844 844 845 845 846 846 847 847 848 848 847 848 851 852 850 849 850 850 851 851 851 852 852 852 852 852 852 852 853 854
748 752 755 757 760 761 765 768 771 775 778 781 784 787 790 792 795 797 799 801 803 805 808 810 812 813 814 815 816 817 818 820 821 822 823 825 826 827 828 829 830 831 833 834 835 836 837 838 839 839 840 841 841 842 843 843 843 844 844 845 845 846 847 847 847 847 847 849 850 850 850 850 850 851 851 851 851 851 851 851 851 852 852 852 852
744 748 751 754 757 759 761 764 767 771 775 778 781 784 787 789 791 794 796 798 800 803 805 807 809 811 811 813 814 815 816 818 819 820 822 823 824 826 827 828 829 830 832 833 834 835 836 837 838 838 839 840 841 842 842 843 843 844 844 844 845 845 846 846 847 847 847 847 849 850 850 850 850 850 850 851 851 851 851 851 851 851 851 851 851
Wind_Speed
15 17 22 22 24 26 27 28 27 28 30 29 28 28 29 28 28 28 28 28 27 27 27 27 26 25 26 26 25 23 22 22 21 20 20 19 19 19 19 19 17 16 15 15 16 16 16 16 15 15 15 14 14 13 13 11 10 11 11 11 12 12 11 11 11 11 12 13 13 12 12 11 10 10 9 10 10 11 11 11 12 14 14 14 14
18 19 22 25 27 27 27 28 28 29 30 29 28 29 30 28 27 28 29 28 27 27 26 25 24 25 25 25 24 22 22 21 20 19 19 19 19 19 19 18 16 16 15 15 15 16 16 15 15 14 14 13 13 13 13 11 10 9 9 10 10 11 11 10 10 11 11 11 12 12 12 11 10 9 8 8 9 10 11 11 13 14 14 14 14
21 21 22 25 27 27 28 28 29 29 29 28 29 29 29 28 28 28 28 27 26 26 24 23 23 24 24 24 22 21 21 20 19 19 18 18 18 18 18 17 16 15 15 15 15 15 15 14 14 14 13 13 12 12 12 11 10 9 9 9 9 10 10 10 9 10 10 10 11 12 12 11 10 9 8 8 9 10 12 12 13 14 14 14 13
22 22 22 25 25 26 27 28 28 28 28 28 28 28 28 28 28 28 26 25 24 24 23 22 22 22 22 22 21 20 20 19 18 18 18 17 17 18 17 16 15 14 14 14 14 14 14 13 13 13 13 12 12 11 10 10 9 9 9 8 8 8 9 9 9 9 8 9 10 10 11 11 10 9 9 8 9 10 12 12 14 14 14 14 14
24 23 23 26 25 26 27 27 28 28 28 28 28 28 27 27 27 26 24 24 23 23 21 21 21 21 21 20 20 19 18 17 17 17 17 17 17 17 16 14 14 14 13 13 13 13 13 12 12 12 12 11 11 11 10 9 9 8 9 9 8 8 8 7 9 9 8 9 10 9 10 11 10 10 10 10 10 11 12 13 14 14 14 14 14
26 25 26 28 27 27 26 25 26 27 27 27 27 26 27 26 25 24 23 23 22 21 20 19 19 19 19 19 19 18 17 16 16 16 16 16 16 15 14 13 13 13 12 12 12 11 11 11 11 11 10 10 10 10 10 9 8 8 8 9 8 8 8 7 8 9 10 10 11 10 10 11 10 10 10 10 11 11 12 13 14 14 14 14 13
26 27 27 28 28 28 26 25 25 26 26 27 26 25 25 24 24 23 22 22 21 19 18 18 18 18 18 18 17 17 16 15 15 15 15 15 14 13 13 12 11 11 10 10 10 10 10 10 10 9 9 9 8 8 9 9 8 8 8 9 9 9 8 7 8 9 10 10 12 12 10 11 11 10 10 11 12 12 12 13 14 14 13 13 13
27 28 27 28 29 29 27 26 26 27 27 26 25 24 24 23 22 22 21 20 19 18 17 18 17 17 17 17 16 15 15 14 14 14 14 14 12 12 12 11 11 10 9 9 9 9 8 8 8 8 8 7 7 7 7 7 8 8 8 9 9 9 8 7 8 9 9 9 12 13 11 11 11 10 11 11 12 12 13 13 13 13 13 12 13
29 28 29 29 29 28 27 27 27 27 26 25 24 24 24 23 22 21 21 20 19 18 17 17 16 16 16 16 15 15 14 13 13 13 13 12 11 11 11 11 10 10 9 9 9 8 8 7 7 7 7 6 6 6 6 6 7 7 8 8 8 9 9 8 9 9 10 10 13 14 11 10 11 11 11 11 12 12 12 12 13 12 12 12 13
29 28 29 28 29 29 28 28 27 25 25 24 24 24 23 22 21 20 20 20 19 18 17 16 16 16 15 15 14 14 13 12 12 12 11 11 11 11 10 10 10 10 9 9 8 8 7 7 7 6 6 5 4 5 5 5 6 7 7 7 8 9 9 9 10 10 11 13 14 15 12 9 10 11 10 11 12 12 12 12 12 12 12 11 12
27 28 28 27 29 28 28 27 25 25 24 24 23 22 21 20 20 20 20 19 19 18 17 17 16 15 14 14 13 13 13 12 11 10 10 9 10 10 10 10 10 9 9 9 8 7 7 6 6 5 5 4 3 3 4 5 6 7 7 7 8 9 9 10 10 11 12 15 16 15 12 9 9 10 10 11 11 11 11 11 11 12 12 11 12
26 28 28 27 27 26 26 25 25 24 24 23 22 21 20 20 20 20 20 19 19 18 17 16 16 15 14 13 12 12 12 11 10 9 9 9 9 9 9 9 9 9 8 8 7 7 7 6 6 4 4 4 3 3 4 6 7 8 7 8 8 8 9 10 11 11 12 15 16 14 12 9 9 11 10 10 11 11 12 12 11 11 11 11 12
27 29 29 28 27 26 26 25 24 24 23 22 21 21 21 21 21 21 20 19 19 17 16 16 15 14 13 13 12 11 11 10 9 8 9 9 9 9 8 8 8 8 7 7 7 7 7 6 5 4 4 4 3 4 5 7 8 8 7 7 8 7 8 10 11 11 12 13 14 13 11 9 10 12 10 10 11 12 12 12 11 10 11 11 12
29 30 30 29 28 26 25 25 24 23 23 22 21 21 21 21 21 20 19 19 19 17 16 15 14 13 13 12 11 11 10 9 8 8 8 8 8 7 7 8 7 7 6 6 6 6 7 6 5 4 6 6 5 6 7 8 8 8 7 7 7 6 7 9 9 10 12 13 14 13 11 9 11 12 11 11 11 11 11 12 11 10 10 10 11
31 32 31 29 28 27 26 25 24 23 23 22 21 21 21 21 20 20 18 18 17 16 15 14 13 13 12 11 11 11 9 9 8 7 8 7 6 6 6 7 6 6 6 6 6 6 7 6 5 5 7 8 8 8 8 8 8 8 7 7 7 7 8 8 7 9 11 12 13 12 10 9 11 12 11 11 12 11 11 11 11 10 9 9 10
32 33 31 28 27 26 26 25 24 23 22 22 21 21 21 21 20 19 18 17 16 15 15 14 13 12 12 11 10 10 9 8 7 7 7 6 5 4 5 6 6 5 6 6 6 7 7 7 6 5 7 9 10 10 9 8 8 8 8 8 7 6 7 7 7 9 10 11 11 10 9 9 10 11 11 11 12 11 11 11 11 10 10 9 9
31 32 30 27 27 27 26 25 24 23 22 21 21 21 21 20 20 19 17 17 16 15 14 13 13 12 11 10 10 9 8 7 7 7 6 5 4 4 5 6 6 5 5 6 6 7 7 6 7 7 8 10 11 11 10 9 9 8 7 8 6 4 3 4 8 9 9 9 9 9 8 9 9 10 11 11 11 11 11 11 11 10 10 10 9
30 30 29 29 28 27 26 25 24 23 22 21 21 21 20 20 20 19 17 16 15 14 14 13 12 12 11 10 9 8 8 7 6 6 5 4 3 3 5 6 6 6 6 6 6 7 6 6 7 8 9 10 12 12 12 11 9 7 6 6 5 4 2 2 5 7 8 8 8 8 8 9 9 9 10 11 11 11 10 11 12 11 11 10 10
29 29 30 30 28 27 27 26 25 24 23 22 22 21 20 20 19 19 18 16 15 14 14 13 12 11 11 10 9 8 7 6 6 5 5 3 2 3 5 5 5 6 6 6 6 5 5 6 6 8 9 11 12 12 14 11 6 4 5 5 3 3 3 0 2 4 6 7 6 7 7 8 9 10 10 10 11 11 11 11 11 11 11 11 11
28 29 29 29 28 28 28 26 25 24 24 23 22 21 20 19 19 19 18 17 15 14 13 13 12 12 11 10 9 8 7 6 6 5 4 2 1 3 4 4 5 5 6 5 6 5 5 8 8 7 8 9 10 10 12 8 4 3 3 3 2 2 3 2 1 3 4 5 6 5 4 6 9 11 11 11 11 11 11 11 11 11 11 11 11
27 28 28 28 26 28 28 27 26 25 24 23 22 21 20 20 19 18 17 16 15 14 13 13 12 11 11 10 9 8 7 6 6 5 4 2 2 3 3 3 4 5 5 5 5 5 6 8 9 8 7 7 8 9 9 5 5 6 7 6 4 2 1 1 2 4 3 3 6 6 3 5 9 11 12 11 11 12 12 12 11 11 10 11 11
27 27 27 27 26 27 28 27 26 25 24 23 22 21 20 20 19 18 17 16 15 14 13 13 12 11 11 10 9 8 7 7 6 6 4 2 2 3 2 3 4 4 5 5 5 6 7 8 8 7 7 7 7 8 7 4 5 6 7 7 7 5 3 3 2 2 3 4 4 6 4 5 9 11 12 11 11 11 12 12 12 11 10 10 10
27 28 28 28 27 28 28 27 26 25 25 24 23 22 22 21 20 19 18 17 16 15 14 13 12 12 11 10 10 8 8 7 6 6 5 3 1 2 1 2 3 4 4 5 5 5 6 7 6 5 6 6 7 6 5 4 3 4 5 4 6 7 4 3 3 3 2 4 5 5 5 5 8 11 12 12 11 11 12 12 12 12 12 10 10
28 28 28 28 27 28 28 27 26 25 25 25 24 23 22 21 20 19 18 18 17 16 15 14 13 12 11 11 10 8 8 7 6 6 6 3 1 1 1 2 2 2 3 3 3 3 3 4 3 3 4 6 5 3 3 4 3 2 4 3 4 6 4 3 2 4 2 3 3 4 4 4 7 10 11 12 12 11 11 12 12 12 12 11 11
28 28 28 29 27 27 27 27 27 26 25 25 24 23 23 22 21 20 19 18 18 17 16 15 13 12 11 10 9 8 7 8 7 6 7 5 2 2 1 2 1 1 2 1 1 1 1 2 3 3 4 4 3 2 3 4 4 2 3 4 5 3 2 2 0 2 2 2 3 3 3 3 7 10 11 12 13 12 12 12 12 13 13 13 12
26 26 28 29 28 28 28 28 28 27 25 25 24 23 24 22 21 20 19 19 18 18 17 16 14 12 11 10 10 9 8 8 7 7 7 6 5 5 2 1 1 1 2 1 0 1 1 1 3 3 4 3 3 3 4 5 5 4 5 4 4 4 3 2 2 1 1 2 4 4 2 3 6 10 11 12 13 13 12 12 12 13 13 14 14
26 26 28 29 28 28 28 29 29 28 26 24 22 23 24 22 21 20 19 19 18 18 17 16 15 13 12 12 13 11 8 9 9 8 7 8 7 5 3 1 1 0 1 1 0 0 0 1 1 3 3 2 2 2 3 5 4 4 5 5 1 2 3 5 4 1 2 3 4 5 3 3 6 11 12 12 14 14 14 13 13 13 14 14 15
26 26 27 28 29 29 29 30 30 28 26 24 22 22 24 22 21 21 19 18 17 17 16 16 15 14 13 13 13 10 8 9 9 8 8 8 6 5 4 3 1 1 0 1 1 1 2 2 2 2 3 3 3 2 3 3 3 3 3 4 3 3 2 4 6 3 3 5 6 4 3 3 5 11 13 13 14 15 15 15 15 14 14 14 14
26 27 27 28 29 29 29 30 30 28 25 25 23 22 23 22 22 22 19 18 17 16 17 17 16 15 14 14 13 11 10 10 9 8 9 8 6 6 5 2 1 2 1 0 1 2 1 2 2 2 2 3 3 2 3 3 3 2 1 3 5 4 3 2 6 7 5 6 7 4 4 4 3 9 13 13 14 15 16 16 16 16 15 14 14
27 28 28 28 29 29 29 29 29 29 26 25 25 23 23 22 22 21 20 20 18 16 18 18 17 16 16 15 14 12 10 9 8 9 10 9 8 7 4 2 1 1 2 1 2 1 1 1 1 1 1 2 2 2 3 2 3 4 1 1 2 3 1 2 3 5 8 8 8 5 4 4 4 7 11 13 13 14 16 17 17 16 15 14 14
30 30 29 29 29 30 30 29 29 29 27 26 24 23 23 22 20 19 19 20 18 17 18 19 18 17 16 16 15 12 10 10 10 10 10 9 8 7 4 3 2 1 2 2 1 1 0 0 0 1 2 1 2 3 2 1 3 5 2 2 1 1 2 4 5 3 6 10 9 6 5 4 4 5 8 11 12 13 14 16 15 15 15 15 14
32 31 30 30 29 30 30 28 30 29 27 26 23 22 22 22 20 19 19 19 17 18 18 18 17 16 16 18 17 15 12 11 12 11 11 10 8 6 4 3 3 2 3 3 3 2 1 2 2 2 2 1 4 4 2 2 3 4 3 1 1 1 3 4 5 7 5 8 8 6 5 5 5 5 6 9 10 12 13 14 14 15 16 15 15
32 32 32 32 30 30 30 28 29 28 27 25 23 22 22 22 21 20 20 19 17 17 16 15 16 15 15 18 19 18 14 11 11 9 9 10 8 7 5 4 4 3 3 4 5 3 2 3 3 4 2 2 3 2 1 1 1 2 3 1 3 2 3 3 3 9 11 8 6 4 5 5 5 4 5 6 8 10 11 12 13 14 16 16 15
31 32 33 33 30 30 30 28 29 29 27 25 24 23 23 22 21 21 20 18 17 17 16 14 15 15 14 17 19 17 16 13 12 10 9 9 8 7 6 6 5 4 3 4 4 4 3 3 3 3 2 2 1 1 3 4 3 2 4 1 1 3 4 5 5 8 9 9 10 9 7 6 5 4 5 5 6 8 10 11 12 13 15 16 17
31 32 34 34 31 30 30 29 30 30 28 26 25 24 22 22 21 20 19 18 18 18 17 14 14 15 14 16 17 15 15 14 12 11 11 10 9 8 7 6 5 4 4 5 5 4 2 2 2 1 2 1 1 3 3 6 5 4 3 3 3 4 6 7 9 8 7 7 8 8 8 7 7 6 4 4 5 7 8 9 11 13 12 14 15
31 30 33 34 32 31 31 30 30 31 30 27 26 24 23 22 21 19 19 18 18 17 17 15 13 14 13 14 15 14 13 13 12 12 12 12 9 9 8 6 5 4 6 6 4 4 3 2 2 1 1 2 2 2 3 7 5 5 4 2 1 1 4 5 6 6 5 6 5 5 8 7 8 8 5 4 4 5 6 7 9 10 10 11 12
33 30 31 34 33 31 32 31 31 31 31 27 25 25 24 22 21 19 19 19 19 17 16 16 15 14 15 15 15 14 13 12 13 13 13 12 11 10 8 6 6 5 7 7 5 5 4 3 3 3 2 3 3 3 5 5 4 2 3 1 2 4 4 3 3 4 3 3 6 7 7 9 9 8 6 5 5 6 6 6 7 7 8 10 10
35 33 31 33 33 32 33 33 33 32 31 29 24 25 25 22 21 19 19 19 18 17 16 16 15 14 15 15 15 14 12 12 13 14 13 12 12 10 8 7 7 7 8 7 6 6 5 4 3 3 3 4 4 3 3 3 3 1 2 3 4 4 2 2 0 2 1 3 7 9 8 10 9 9 9 9 8 7 7 6 6 6 6 8 9
36 35 32 31 32 32 32 33 35 33 31 30 26 23 24 23 22 19 18 18 18 17 16 16 15 15 14 14 15 14 13 13 13 13 12 12 12 10 8 8 8 9 9 8 7 7 6 5 4 4 4 4 3 3 1 2 2 0 2 2 3 1 2 4 3 4 2 2 6 10 11 11 10 11 12 12 10 7 5 4 5 6 5 5 6
35 35 33 32 31 30 31 32 35 34 31 31 29 24 23 23 23 21 18 18 19 18 16 16 16 16 15 15 16 14 14 14 13 13 12 13 12 10 10 10 10 10 9 8 8 7 7 6 5 5 4 2 2 3 2 1 1 2 2 2 2 1 1 1 4 5 2 4 11 16 15 13 11 12 12 12 11 10 8 5 3 4 4 4 4
33 36 35 34 33 30 30 32 33 35 33 33 31 27 25 24 24 24 21 19 19 19 17 16 15 16 17 17 17 15 15 14 14 13 12 13 13 12 13 13 12 11 9 8 9 8 7 7 6 4 4 3 2 1 2 1 3 2 1 2 2 3 1 1 3 2 0 8 15 16 16 14 12 12 12 12 11 10 9 7 6 4 4 3 3
32 36 36 36 36 32 30 31 32 34 35 34 33 30 28 26 25 25 24 21 20 20 20 17 15 17 17 17 17 16 15 15 14 13 13 13 14 13 14 14 13 11 9 9 11 9 6 6 5 5 4 3 1 1 3 3 3 2 0 2 1 5 5 4 4 5 1 10 13 10 9 9 11 14 13 12 10 9 8 6 6 5 4 4 3
31 34 36 36 37 34 32 32 32 33 34 35 34 32 30 28 27 26 24 22 20 21 20 18 17 17 17 17 17 17 16 15 14 14 13 13 15 15 14 14 12 10 10 12 12 8 7 7 6 5 4 2 2 1 2 3 3 2 1 2 1 4 3 3 4 3 4 14 14 10 8 7 10 13 14 12 10 9 9 6 5 4 4 2 2
30 32 35 36 38 37 35 34 33 31 33 34 33 32 31 28 26 24 23 20 19 20 19 19 19 18 17 17 18 18 16 16 15 14 14 15 16 16 15 14 11 10 13 13 11 9 7 8 7 6 4 3 2 2 2 3 4 3 2 1 0 1 0 2 3 2 9 15 13 10 9 9 10 11 13 12 10 9 10 9 8 6 5 3 2
31 33 36 37 37 38 36 35 35 32 31 33 33 31 30 28 24 22 22 19 17 21 22 21 21 19 19 18 19 18 16 16 15 14 15 16 16 15 14 13 12 14 14 10 10 10 8 8 8 7 5 4 3 3 5 5 3 3 3 3 2 2 2 2 2 1 6 11 12 11 10 9 9 10 12 12 10 9 8 9 10 9 6 5 4
32 34 36 37 36 37 36 35 35 34 32 32 33 32 30 29 27 25 25 21 19 24 26 24 23 22 21 20 19 19 18 17 15 14 15 16 15 13 14 15 16 16 13 10 10 11 10 10 10 8 5 6 6 3 4 7 4 2 4 5 3 2 2 0 1 0 2 5 9 10 10 8 8 10 12 13 11 10 9 9 11 10 6 5 5
34 35 35 35 35 36 37 35 35 36 34 32 33 34 32 31 30 28 27 26 24 25 26 25 24 24 22 20 18 19 20 18 16 15 14 14 15 15 17 19 17 14 13 12 12 12 12 11 11 10 7 7 6 3 4 8 6 2 4 5 4 5 4 2 1 1 1 1 2 6 11 11 8 9 12 14 13 11 10 9 9 7 5 6 5
34 34 34 36 36 37 38 37 35 35 36 33 33 35 34 33 32 29 27 28 27 25 25 24 23 22 21 20 19 20 21 19 18 16 13 14 17 19 20 19 17 14 14 15 14 12 13 12 12 11 9 8 6 5 6 7 6 5 6 6 6 5 5 3 2 2 3 1 3 1 8 10 8 8 11 13 12 10 9 7 6 4 4 7 5
34 34 35 36 38 38 38 38 36 35 36 36 35 34 35 34 33 30 27 27 27 26 24 22 21 21 22 22 20 20 21 20 18 16 14 16 20 21 21 20 19 17 13 14 14 13 14 14 12 12 11 10 8 7 6 6 8 8 7 8 7 6 4 3 3 3 3 2 1 1 3 6 7 7 10 14 12 9 7 4 2 2 4 7 5
34 34 35 35 36 37 38 38 38 36 36 38 38 35 35 34 33 31 29 27 27 25 23 22 22 22 22 22 22 21 21 20 19 17 17 20 22 22 22 21 21 19 14 14 15 14 14 13 11 11 11 12 11 9 7 7 9 8 7 8 9 8 4 2 4 5 3 2 1 1 4 7 4 2 5 12 12 7 4 1 2 2 3 5 6
35 34 34 34 35 36 37 39 39 37 36 37 39 37 36 34 33 33 30 29 28 25 24 24 24 23 22 23 24 22 21 21 21 20 21 23 23 24 24 22 21 18 14 15 17 16 14 13 12 11 12 13 11 9 9 9 9 8 6 8 10 10 6 4 7 8 5 3 2 1 3 4 2 2 3 6 7 5 3 3 4 4 4 5 8
Wind_Direction
132 128 134 140 136 138 135 133 131 130 131 128 127 125 123 122 121 119 117 115 114 114 115 116 116 116 114 112 112 113 113 110 108 110 111 109 105 101 98 95 95 95 94 91 88 85 82 82 81 81 82 82 81 81 82 87 92 93 95 94 95 95 94 96 97 97 97 95 94 92 90 90 92 94 97 103 107 114 116 111 111 108 103 101 99
134 132 136 140 139 138 133 134 134 133 134 130 129 127 125 123 121 119 118 117 116 115 116 117 117 116 114 113 114 114 112 109 110 113 112 108 106 102 99 97 98 97 94 91 87 84 82 81 80 80 80 79 76 75 78 83 87 91 95 94 97 99 97 96 98 100 100 98 97 95 92 91 93 95 97 107 114 119 123 119 117 111 105 102 100
134 135 138 141 140 138 136 137 138 137 135 131 129 128 127 125 124 122 120 119 118 116 116 118 117 116 115 115 116 114 111 111 113 114 111 108 106 103 100 99 99 97 94 91 86 84 82 81 80 79 78 76 74 72 74 79 84 87 94 97 99 104 105 101 98 99 100 97 97 96 96 97 97 100 100 110 120 122 125 125 122 115 110 108 103
136 136 138 143 141 138 138 139 139 139 135 132 130 129 128 127 126 124 123 122 119 117 117 118 117 115 115 117 117 114 112 114 115 113 111 109 106 103 102 102 100 96 93 90 87 84 83 81 79 77 77 75 73 71 70 73 79 83 89 97 104 106 107 105 100 98 100 100 100 97 97 99 98 101 103 109 122 124 125 129 127 120 118 114 108
139 135 137 143 142 140 140 139 138 139 136 134 133 131 130 128 127 126 126 125 122 119 119 119 117 116 117 118 117 115 115 116 116 114 112 109 106 104 103 103 100 96 93 91 89 87 84 81 79 77 75 74 73 72 70 69 73 78 82 90 105 112 109 106 102 100 104 109 112 107 97 98 100 102 104 109 118 123 126 131 129 123 120 116 111
141 135 137 142 144 143 143 139 136 139 139 136 135 133 131 129 129 128 129 128 125 123 122 121 119 119 119 119 118 118 117 117 115 114 113 110 108 106 106 104 101 97 93 92 90 89 86 82 80 77 74 73 73 71 69 66 66 72 79 85 101 115 112 107 105 104 109 117 121 119 106 103 106 107 111 113 115 121 125 129 129 124 120 118 116
140 137 138 142 145 145 146 142 139 140 139 137 134 133 133 132 132 131 130 130 128 127 126 123 121 122 121 121 120 120 118 115 113 113 112 112 111 109 110 108 104 100 98 96 93 91 88 83 78 76 74 74 75 72 69 65 62 65 75 84 93 108 111 104 102 107 116 120 119 121 116 110 112 112 113 115 116 120 123 127 128 125 122 122 121
141 140 139 144 146 146 147 143 141 141 138 138 137 137 137 136 134 133 133 134 133 131 130 126 124 125 124 123 123 120 117 114 113 114 113 113 113 112 110 106 101 98 99 101 98 95 89 81 76 75 72 74 80 77 72 69 67 64 70 80 87 101 108 103 98 105 117 119 116 122 122 115 116 117 117 118 117 119 122 125 127 126 124 125 124
143 140 140 144 146 146 147 145 143 141 139 140 141 142 140 137 134 134 136 137 138 136 133 129 127 126 125 124 123 120 117 115 115 115 114 113 113 108 101 97 95 94 95 95 97 95 90 82 75 79 76 76 87 86 79 72 74 70 70 79 85 95 101 97 94 102 112 114 119 125 122 118 120 121 122 121 119 118 123 127 129 128 126 128 129
141 140 141 144 146 147 148 147 146 144 143 142 143 142 139 137 134 136 138 139 140 139 135 131 129 127 127 126 124 121 118 117 116 115 113 112 108 100 93 90 89 89 88 85 89 90 88 84 78 84 82 76 85 87 85 80 81 79 78 82 88 97 99 94 96 105 108 110 122 126 122 123 125 126 125 121 119 118 124 129 130 130 129 131 130
142 142 142 144 146 147 149 149 148 147 146 144 143 140 138 137 138 140 140 142 141 139 136 133 133 131 130 129 128 125 120 119 117 115 113 109 104 95 88 85 84 83 81 80 83 83 78 75 73 79 77 72 79 81 85 87 87 89 90 91 95 101 102 98 99 107 111 115 124 125 124 130 130 131 128 123 122 119 124 128 128 130 130 132 131
145 148 145 146 147 147 149 149 149 148 147 146 143 142 141 142 143 142 141 142 141 140 138 136 137 135 135 134 132 129 124 123 119 114 109 106 102 95 88 83 83 80 80 80 78 73 67 67 64 64 67 62 74 80 81 85 88 92 94 98 102 103 102 101 101 109 118 123 123 122 128 136 134 133 131 125 124 124 126 128 128 129 129 132 134
148 150 148 148 148 149 149 148 149 149 149 148 147 148 147 147 146 144 143 143 143 141 139 139 139 139 140 137 135 132 126 124 119 113 109 108 102 94 87 80 78 77 77 76 74 64 54 63 63 54 54 51 73 88 81 84 87 89 90 96 105 107 104 102 102 110 122 128 125 128 138 139 134 134 134 130 127 129 129 128 128 128 129 132 136
148 151 150 150 149 150 150 149 149 149 150 150 150 151 151 151 150 148 146 146 146 145 143 143 143 142 142 141 139 133 129 125 119 115 112 109 100 92 83 73 73 72 66 61 62 55 48 56 61 56 56 61 85 90 82 84 87 86 85 88 98 97 91 98 104 107 118 133 135 137 144 139 132 135 137 133 130 132 131 128 128 128 127 128 136
151 152 151 152 152 153 152 151 151 151 151 151 152 152 153 154 153 152 149 149 149 147 147 147 148 147 145 145 142 136 133 127 122 120 115 109 99 90 75 63 64 64 56 45 41 47 50 49 60 69 66 76 93 91 83 84 85 82 82 81 84 84 83 96 108 109 116 129 140 144 142 135 132 135 141 137 134 136 133 131 130 129 128 126 136
155 153 152 154 155 156 154 153 153 153 153 152 153 153 155 156 155 155 152 151 151 150 151 152 152 150 150 150 146 143 140 133 128 128 122 116 106 89 67 54 55 58 51 40 38 53 56 48 64 84 77 85 95 91 83 81 81 77 79 78 73 73 79 91 102 108 116 124 135 144 139 132 133 135 141 140 139 143 138 136 134 132 134 133 138
154 154 154 156 157 157 156 155 154 154 154 153 154 154 156 157 156 157 155 153 154 155 156 155 154 153 154 153 151 148 144 139 135 134 130 121 108 84 64 48 46 48 38 32 42 59 61 59 75 92 90 88 87 83 79 76 73 70 74 80 80 81 66 81 103 107 114 125 131 135 136 133 134 135 140 144 145 149 146 141 139 139 140 140 143
154 156 156 157 157 158 158 157 156 156 155 155 155 156 157 158 158 158 158 157 158 158 159 158 157 157 157 158 157 152 147 144 139 138 134 123 105 69 56 45 38 30 24 25 42 60 66 77 89 94 95 92 85 79 77 72 65 71 90 100 107 119 99 54 101 112 117 130 136 132 135 137 138 139 140 147 151 154 153 147 145 145 145 146 148
155 158 157 157 157 157 159 158 159 158 157 158 157 158 159 159 160 160 160 160 161 161 161 161 161 162 162 163 160 156 152 146 144 142 137 134 104 63 50 41 28 17 19 25 40 56 71 92 100 96 98 97 91 82 75 69 67 88 111 117 110 102 118 55 74 108 117 129 148 143 141 146 144 146 146 148 155 158 157 153 151 151 150 152 153
156 160 159 157 157 159 160 160 161 161 161 160 160 161 162 162 162 162 163 162 163 164 165 164 165 166 166 167 165 162 157 150 150 145 137 145 94 58 44 31 19 18 27 34 46 62 81 98 102 97 101 98 93 81 71 65 64 52 36 75 85 64 111 159 145 129 121 124 142 151 152 159 155 154 155 153 155 159 160 160 157 155 156 158 157
155 161 160 157 160 162 161 161 163 163 163 163 163 164 164 165 164 164 164 164 166 166 167 168 168 169 169 169 170 166 160 154 152 153 151 148 100 58 40 23 15 26 43 48 60 78 89 98 101 99 97 93 86 72 68 56 37 24 2 20 37 5 9 31 117 141 149 145 136 142 152 168 168 162 161 159 156 158 161 164 163 159 161 162 162
156 160 161 161 164 165 163 163 165 165 166 166 167 167 167 167 167 167 167 168 168 169 171 172 172 171 172 173 175 170 164 164 162 169 183 181 117 68 52 25 21 36 58 65 74 91 98 103 104 97 92 88 76 60 65 54 22 13 1 12 28 19 354 8 49 110 149 180 157 144 151 170 179 171 164 164 159 158 160 165 166 163 164 167 167
158 161 163 165 168 167 165 166 165 166 168 169 170 169 170 170 170 170 170 171 171 174 175 175 176 175 176 177 177 175 173 178 175 175 187 192 129 73 43 4 23 46 70 84 86 92 100 104 98 89 84 74 62 47 50 54 27 7 9 6 15 21 12 16 40 51 111 174 173 158 155 166 183 178 169 169 166 161 161 165 167 165 167 169 169
161 163 163 165 169 167 166 168 165 166 171 171 173 172 174 173 173 174 174 174 175 178 178 178 180 179 181 177 178 182 179 183 182 182 190 186 126 72 345 343 7 52 74 100 96 84 92 95 77 73 69 60 58 30 17 46 58 7 359 343 344 9 6 342 39 58 81 153 163 167 161 163 182 184 179 175 172 169 167 167 169 168 168 169 169
160 162 161 163 168 167 168 168 165 168 172 173 176 176 177 176 177 179 178 179 180 181 180 180 182 183 185 177 183 196 189 189 190 190 190 172 165 230 279 350 355 21 29 49 86 49 38 64 48 41 50 49 41 9 12 40 59 37 358 335 311 322 353 313 294 85 93 128 143 157 161 168 181 187 188 182 178 177 174 172 172 171 171 171 170
158 158 159 163 167 168 170 168 166 172 173 175 178 177 179 179 179 181 181 183 184 183 182 183 185 188 188 183 193 206 200 197 198 193 182 171 194 223 228 304 333 353 352 343 86 10 329 28 25 11 29 32 13 25 26 34 50 41 28 9 292 257 270 248 187 149 167 143 148 156 168 181 184 189 191 187 185 182 179 177 178 177 175 174 173
159 158 159 164 167 169 171 169 169 174 174 176 180 179 181 182 182 184 184 185 186 186 185 186 188 192 194 192 200 206 201 201 199 191 182 180 198 208 190 204 256 279 354 336 264 158 256 272 313 341 4 17 15 42 29 32 49 37 28 20 334 258 262 213 180 178 237 212 171 161 164 171 188 192 191 191 189 187 185 182 184 183 182 179 176
159 160 162 165 168 171 173 172 173 174 174 176 182 183 182 183 184 186 188 187 188 189 188 190 194 198 201 200 203 203 201 206 199 186 186 189 195 194 186 182 157 166 98 10 304 155 168 230 247 291 317 355 25 63 48 38 34 20 30 33 68 68 40 195 203 224 236 219 191 171 148 145 188 191 191 193 192 192 190 187 188 187 187 185 182
161 162 166 167 169 173 174 175 174 174 176 177 183 184 181 184 186 187 189 188 192 192 190 196 201 203 203 202 202 201 202 205 197 187 195 199 195 198 202 193 153 167 189 136 149 145 161 250 257 275 302 2 25 53 52 52 30 7 343 41 65 74 65 187 222 224 221 216 201 185 144 125 168 187 190 193 193 196 196 195 193 190 190 190 189
166 166 168 169 171 174 175 177 175 174 178 178 182 185 182 186 188 188 187 188 196 197 193 200 206 207 205 202 201 203 205 199 191 189 197 201 197 201 206 201 179 151 179 174 152 135 22 317 282 239 261 24 38 46 45 45 19 14 302 279 44 60 38 304 294 243 224 217 201 187 152 122 120 167 189 193 194 199 202 203 200 195 193 192 195
168 167 170 171 173 176 175 178 179 177 179 178 183 187 184 186 188 187 185 188 197 197 196 202 208 210 206 201 199 204 204 191 187 187 189 191 193 200 197 188 184 163 195 201 163 100 103 338 279 229 275 300 88 68 39 353 338 359 353 269 262 82 28 351 359 351 220 210 196 181 158 140 124 142 179 191 194 199 203 207 205 201 200 198 199
168 169 172 173 174 177 177 180 182 180 180 179 183 187 183 187 189 188 188 189 194 197 199 204 207 208 204 200 197 198 196 180 178 182 187 193 196 201 202 198 197 205 225 220 220 223 239 291 275 263 305 144 120 90 24 337 325 316 311 354 32 96 47 17 24 53 125 185 193 191 177 156 142 137 167 188 193 197 202 205 205 207 208 205 203
168 170 172 174 176 177 178 181 183 182 182 181 186 188 183 187 190 188 189 190 193 198 200 204 205 203 202 202 198 196 194 186 185 189 195 200 202 207 211 210 221 249 248 224 220 226 257 289 282 274 283 137 120 102 272 287 33 337 300 339 40 44 45 23 38 77 99 128 142 163 184 164 148 149 162 181 191 196 201 202 201 205 211 210 210
168 170 173 175 176 178 179 181 183 183 184 184 187 190 185 185 188 185 186 190 196 198 198 203 204 199 195 196 198 198 197 200 205 206 206 209 216 225 219 211 229 260 238 203 211 240 278 282 288 284 220 151 17 246 242 264 204 97 7 328 124 37 37 53 86 99 92 100 111 116 134 136 132 149 160 173 189 196 202 206 201 201 208 210 213
169 169 173 175 176 178 179 181 185 185 183 184 187 188 185 184 187 186 186 191 196 197 197 200 201 193 186 189 196 200 201 204 208 208 211 217 226 232 227 218 220 230 218 197 208 242 280 277 286 297 181 179 286 236 262 303 259 197 55 67 139 56 51 72 90 98 70 82 105 101 112 125 130 141 153 168 184 196 204 213 210 204 205 209 217
171 171 172 175 177 179 179 180 185 185 183 186 188 188 186 186 188 187 189 193 196 197 195 196 199 194 193 200 204 206 208 208 208 206 210 215 220 226 229 223 202 203 215 205 204 226 234 244 236 190 178 249 264 275 305 329 317 201 171 44 192 99 70 67 76 85 64 82 116 105 105 119 130 138 154 179 184 191 201 218 221 213 210 211 219
175 177 175 176 178 179 179 181 184 186 185 186 187 188 188 188 189 189 192 194 195 198 194 194 200 202 207 214 213 212 214 212 208 207 207 208 213 221 223 218 202 196 206 205 205 213 209 198 203 196 211 269 282 309 294 301 338 166 170 22 177 151 93 73 70 75 49 99 149 149 119 117 124 124 130 152 168 179 186 203 221 225 222 218 217
178 182 181 178 179 179 180 182 185 188 189 187 184 188 188 187 188 190 193 194 195 197 196 195 199 205 209 214 215 212 211 211 209 209 207 204 211 220 219 213 202 194 201 208 212 207 192 176 177 187 216 262 269 286 303 298 322 109 103 71 146 156 152 206 230 122 92 106 154 156 125 113 114 107 108 119 140 168 186 197 210 217 217 216 214
179 183 184 181 181 182 181 183 185 188 190 188 185 186 185 185 189 190 192 196 197 196 199 199 198 203 205 210 213 208 208 211 212 212 207 201 207 218 221 214 206 203 208 214 211 200 184 172 181 202 223 250 242 228 291 7 351 115 76 93 148 152 206 234 239 171 122 61 151 146 125 114 106 101 99 102 112 129 159 186 198 201 198 203 206
177 180 184 185 186 184 181 181 184 186 187 186 186 185 182 184 189 191 192 195 197 196 201 203 201 204 208 213 213 210 213 214 213 213 208 201 201 214 220 218 218 214 217 219 204 184 170 173 198 212 211 214 222 228 248 351 55 156 109 111 170 350 73 210 198 172 113 93 124 121 117 117 111 106 100 96 96 96 100 109 135 170 174 179 191
177 181 184 187 190 188 184 181 182 184 185 184 186 186 184 185 187 192 195 195 196 197 200 204 205 206 209 214 213 216 218 215 214 211 210 203 197 209 216 219 224 219 221 214 184 162 166 185 198 189 179 202 248 245 203 161 88 123 133 112 192 241 297 322 189 197 110 132 127 115 113 114 113 116 111 101 95 91 89 85 87 103 126 134 153
181 184 185 186 189 190 188 185 182 182 184 184 185 186 188 190 190 193 198 200 201 202 201 201 206 207 208 212 213 219 221 217 216 211 213 208 198 205 214 219 222 215 209 187 165 160 170 183 182 176 190 223 287 80 166 171 82 60 185 111 174 232 251 260 246 288 276 148 139 125 119 112 112 121 124 114 100 89 83 85 90 86 93 101 97
185 185 185 185 187 190 191 189 185 184 184 185 186 188 190 194 196 195 197 200 204 207 205 201 206 208 208 213 216 220 220 218 216 213 214 210 204 209 214 221 225 212 193 172 163 167 168 172 183 191 200 217 230 123 130 148 123 107 119 101 178 226 244 259 263 299 142 144 138 129 123 110 115 127 134 130 118 100 87 94 109 92 84 94 98
184 183 184 184 186 190 192 191 190 187 185 185 188 191 193 196 199 198 196 199 206 208 205 203 207 209 207 210 214 215 217 216 211 210 211 210 211 213 218 225 225 203 185 170 163 167 171 179 189 197 187 166 197 208 179 160 144 134 119 130 193 116 158 287 317 54 128 137 135 134 131 119 121 137 141 134 125 109 95 101 117 115 103 104 128
183 183 184 185 187 190 192 193 193 192 189 188 190 193 193 193 194 195 194 197 199 196 195 198 202 206 207 207 209 211 214 212 209 209 211 214 216 218 222 218 197 179 176 169 167 174 182 185 185 191 188 173 179 217 221 196 151 127 142 143 73 62 220 267 335 51 123 131 137 140 141 134 131 140 145 140 131 118 108 110 120 125 120 119 146
187 186 187 187 188 190 191 192 194 194 193 191 192 193 191 190 190 187 187 187 182 183 189 194 197 202 208 209 208 210 212 211 213 213 213 218 221 215 205 191 175 170 170 164 170 183 195 196 191 187 178 182 187 201 211 188 161 111 138 132 103 137 194 354 54 45 81 132 149 155 162 163 146 138 146 151 143 130 128 129 131 134 133 140 159
191 190 189 189 189 190 191 193 194 195 195 192 192 193 192 191 191 188 186 184 181 185 193 199 202 204 206 209 210 209 210 213 216 215 214 216 206 189 179 177 174 171 171 175 180 188 193 188 184 183 176 182 182 147 157 167 161 147 141 129 123 145 143 99 132 122 65 212 163 160 177 185 170 149 154 159 157 151 146 143 145 147 153 158 165
191 191 190 190 190 190 191 193 194 196 196 194 192 192 193 193 192 192 190 189 190 192 198 203 207 205 203 208 213 213 211 213 213 209 206 199 185 172 173 177 175 171 176 186 189 190 188 177 173 181 185 191 185 149 146 156 157 160 160 152 151 158 139 129 163 136 133 205 348 135 175 181 177 169 168 167 167 168 158 145 143 145 173 178 176
191 192 192 192 191 191 191 192 194 195 197 197 195 193 195 194 193 193 193 195 196 198 201 202 204 204 203 206 212 212 211 207 202 197 188 183 178 174 179 183 180 177 178 181 183 186 185 182 182 187 193 198 195 174 154 147 151 159 171 175 175 176 157 143 172 158 136 140 308 300 111 122 150 168 173 173 170 165 155 145 141 129 172 190 198
192 194 195 193 192 190 189 191 193 195 196 197 197 196 195 195 193 193 193 194 196 198 199 198 198 199 200 205 206 203 200 193 187 187 181 180 182 182 184 188 186 183 179 173 178 181 179 181 181 180 183 186 189 186 168 150 157 166 179 185 183 179 177 176 172 170 165 147 197 249 71 87 124 145 156 168 168 164 170 230 269 218 189 204 213
191 192 193 193 192 191 190 191 193 195 195 195 197 196 196 195 194 195 195 194 194 194 195 196 197 196 199 205 201 193 188 181 180 185 184 183 187 186 184 186 186 184 181 180 185 186 181 180 174 170 175 178 182 185 174 161 164 172 176 181 183 181 183 190 179 176 181 161 147 168 99 70 27 27 101 154 170 185 222 268 269 235 223 229 230